Regional Weather Roundup
Issued by NWS

Home | Current Version | Previous Version | Text Only | Print | Product List | Glossary Off
Versions: 1 2 3 4 5 6 7 8 9 10 11 12 13 14 15 16 17 18 19 20 21 22 23 24 25 26 27 28 29 30 31 32 33 34 35 36 37 38 39 40 41 42 43 44 45 46 47 48 49 50

000
ASUS43 KLSX 281507
RWRMO

WEATHER SUMMARY FOR MISSOURI
NATIONAL WEATHER SERVICE SPRINGFIELD MO
1000 AM CDT FRI AUG 28 2015

NOTE: "FAIR" INDICATES FEW OR NO CLOUDS BELOW 12,000 FEET WITH NO
       SIGNIFICANT WEATHER AND/OR OBSTRUCTIONS TO VISIBILITY.
       CURRENT SKY AND/OR WEATHER CONDITIONS ARE NOT AVAILABLE FOR
       CHILLICOTHE AND FARMINGTON.

MOZ001>031-035>038-043-044-053-054-281600-
...NORTHERN AND WESTERN MISSOURI...

CITY           SKY/WX    TMP DP  RH WIND       PRES   REMARKS
KANSAS CTY INT CLOUDY    72  63  73 S16       29.97S
KANSAS C DTWN  CLOUDY    72  64  76 S10       29.97S
LEE`S SUMMIT   CLOUDY    71  63  75 S10G23    29.99S
ST JOSEPH      CLOUDY    72  66  81 S16       29.93S
CHILLICOTHE      N/A     71  63  75 S9        30.01R
KIRKSVILLE     CLOUDY    67  60  78 SE12      30.04F

$$
MOZ066>068-077>081-088>096-101>105-281600-
...SOUTHWEST MISSOURI...

CITY           SKY/WX    TMP DP  RH WIND       PRES   REMARKS
SPRINGFIELD    MOSUNNY   71  59  65 S15       30.08R
JOPLIN         CLOUDY    72  62  71 S8        30.05R

$$
MOZ032>034-039>042-045>050-055>058-069>072-281600-
...CENTRAL MISSOURI...

CITY           SKY/WX    TMP DP  RH WIND       PRES   REMARKS
COLUMBIA       CLOUDY    67  61  81 S13       30.07S
JEFFERSON CITY CLOUDY    69  60  73 SE7       30.07S
ROLLA          PTSUNNY   70  59  68 S13       30.09F
SEDALIA        CLOUDY    72  60  66 S14       30.03F
WHITEMAN AFB   PTSUNNY   73  62  69 S15       30.00S
WARRENSBURG    CLOUDY    72  61  68 S10G18    30.01R
OSAGE BEACH    MOSUNNY   72  59  64 S12       30.08S

$$
MOZ051-052-059>065-281600-
...EAST CENTRAL MISSOURI...

CITY           SKY/WX    TMP DP  RH WIND       PRES   REMARKS
ST LOUIS INTL  PTSUNNY   74  58  57 S12       30.13R
SPIRIT OF STL  MOSUNNY   73  60  63 S7        30.10S
ST CHARLES     MOSUNNY   73  63  70 SE8       30.11S

$$
MOZ072>076-082>087-097>100-106>115-281600-
...SOUTH CENTRAL AND SOUTHEAST MISSOURI...

CITY           SKY/WX    TMP DP  RH WIND       PRES   REMARKS
CAPE GIRARDEAU SUNNY     73  63  70 CALM      30.12R
FARMINGTON     MOSUNNY   70  63  78 S9        30.15S
POPLAR BLUFF   SUNNY     72  62  71 CALM      30.11S
WEST PLAINS    PTSUNNY   69  59  70 SE7       30.14R

$$



USA.gov is the U.S. government's official web portal to all federal, state and local government web resources and services.